Location: B?ogocice
(50.2413°N, 20.2361°E)
Time: 00:28:50
(UTC+00:00)

Cosmos 1844 Rocket - Pass Details

Date: 15 June 2024
Orbit: 825 x 843 km, 71.0° (Epoch: 18 July)

Event Time Altitude Azimuth Distance (km) Brightness Sun altitude
Exits shadow 01:17:33 - 194° (SSW) 2,573 4.6 -8.6°
Reaches altitude 10° 01:17:56 10° 193° (SSW) 2,427 4.5 -8.5°
Maximum altitude 01:23:25 63° 114° (ESE) 919 3.0 -8.0°
Drops below altitude 10° 01:28:55 10° 34° (NE) 2,437 6.9 -7.5°
Sets 01:31:23 0° 32° (NNE) 3,373 8.2 -7.2°
